Location: Recife
(8.0585°S, 34.8848°W)
Time: 02:58:31
(UTC-03:00)

Courier 1B Rocket - Pass Details

Date: 20 April 2026
Orbit: 920 x 1201 km, 28.2° (Epoch: 14 May)

Event Time Altitude Azimuth Distance (km) Brightness Sun altitude
Exits shadow 03:34:05 45° 191° (S) 1,247 5.3 -27.1°
Drops below altitude 10° 03:39:40 10° 133° (SE) 2,680 7.7 -25.7°
Sets 03:42:29 0° 127° (SE) 3,662 8.6 -25.0°
